{"data":{"norad_id":53819,"epoch":"2026-05-25T04:47:09.673728Z","epoch_age_seconds":54890,"freshness":"FRESH","line1":"1 53819U 22114B   26145.19941752  .00000373  00000+0  41482-4 0  9997","line2":"2 53819  53.2149 320.5267 0001015 112.9232 247.1868 15.08846732204381","mean_motion":15.08846732,"eccentricity":0.0001015,"inclination_deg":53.2149,"raan_deg":320.5267,"arg_perigee_deg":112.9232,"mean_anomaly_deg":247.1868,"bstar":4.1482e-5,"rev_number":20438,"period_min":95.437128865386,"perigee_km":539.02064923887,"apogee_km":540.42497478071,"semimajor_km":6917.8598120098,"source":"CELESTRAK","updated_at":"2026-05-25T13:38:17.568540Z"}}